Stations météo

réclame
Mon MeteoGroup
Lentran, Grande-Bretagne (99125): Température de l'air & dewpoint: 15.10.2017 07:00:00 - 21.10.2017 07:00:00 (BST)Lentran, Grande-Bretagne (99125): Quantités de précipitations: 15.10.2017 07:00:00 - 21.10.2017 07:00:00 (BST)
Date & Time tt [°C] td [°C] rr [mm]
21.10.2017 07:00:00 - - -
21.10.2017 06:00:00 - - -
21.10.2017 05:00:00 - - -
21.10.2017 04:00:00 - - -
21.10.2017 03:00:00 - - -
21.10.2017 02:00:00 - - -
21.10.2017 01:00:00 - - -
21.10.2017 00:00:00 - - -
20.10.2017 23:00:00 - - -
20.10.2017 22:00:00 - - -
20.10.2017 21:00:00 - - 0,0
20.10.2017 20:00:00 10,1 9,8 0,0
20.10.2017 19:00:00 11,2 10,9 0,0
20.10.2017 18:00:00 11,5 11,1 0,0
20.10.2017 17:00:00 11,6 11,2 0,0
20.10.2017 16:00:00 12,4 11,9 0,0
20.10.2017 15:00:00 12,3 11,2 0,0
20.10.2017 14:00:00 12,8 11,3 0,0
20.10.2017 13:00:00 13,8 11,6 0,0
20.10.2017 12:00:00 13,0 11,4 0,0
20.10.2017 11:00:00 12,1 11,2 0,0
20.10.2017 10:00:00 11,2 10,5 0,0
20.10.2017 09:00:00 10,4 10,2 0,0
20.10.2017 08:00:00 10,1 9,9 0,0
20.10.2017 07:00:00 10,0 10,0 0,0
20.10.2017 06:00:00 10,1 10,1 0,0
20.10.2017 05:00:00 10,1 10,1 0,0
20.10.2017 04:00:00 10,1 10,1 0,2
20.10.2017 03:00:00 10,1 10,1 1,0
20.10.2017 02:00:00 10,1 10,1 0,4
20.10.2017 01:00:00 10,2 10,2 2,2
20.10.2017 00:00:00 10,1 10,1 1,0
19.10.2017 23:00:00 10,2 10,1 0,6
19.10.2017 22:00:00 10,4 10,3 1,0
19.10.2017 21:00:00 10,6 10,2 0,2
19.10.2017 20:00:00 11,6 10,2 0,0
19.10.2017 19:00:00 11,5 9,8 0,0
19.10.2017 18:00:00 13,2 9,7 0,0
19.10.2017 17:00:00 13,1 10,2 0,0
19.10.2017 16:00:00 13,2 9,9 0,0
19.10.2017 15:00:00 12,7 11,2 0,0
19.10.2017 14:00:00 12,8 10,6 0,0
19.10.2017 13:00:00 12,2 10,2 0,0
19.10.2017 12:00:00 11,0 9,8 0,0
19.10.2017 11:00:00 11,2 9,6 0,0
19.10.2017 10:00:00 10,9 9,3 0,0
19.10.2017 09:00:00 9,3 8,8 0,0
19.10.2017 08:00:00 9,7 8,6 0,0
19.10.2017 07:00:00 9,1 8,7 0,0
19.10.2017 06:00:00 7,7 7,4 0,0
19.10.2017 05:00:00 7,0 6,5 0,0
19.10.2017 04:00:00 7,1 6,7 0,0
19.10.2017 03:00:00 6,5 6,2 0,0
19.10.2017 02:00:00 6,2 5,9 0,0
19.10.2017 01:00:00 6,0 5,5 0,0
19.10.2017 00:00:00 6,0 5,6 0,0
18.10.2017 23:00:00 5,7 5,2 0,0
18.10.2017 22:00:00 6,4 5,3 0,0
18.10.2017 21:00:00 7,8 5,1 0,0
18.10.2017 20:00:00 8,3 5,6 0,0
18.10.2017 19:00:00 6,8 6,0 0,0
18.10.2017 18:00:00 8,6 6,6 0,0
18.10.2017 17:00:00 9,6 7,1 0,0
18.10.2017 16:00:00 10,2 6,5 0,0
18.10.2017 15:00:00 10,2 6,3 0,0
18.10.2017 14:00:00 10,1 6,9 0,0
18.10.2017 13:00:00 9,0 6,1 0,0
18.10.2017 12:00:00 8,7 6,8 0,0
18.10.2017 11:00:00 5,3 5,3 0,0
18.10.2017 10:00:00 4,5 4,5 0,0
18.10.2017 09:00:00 4,4 4,4 0,0
18.10.2017 08:00:00 4,9 4,9 0,0
18.10.2017 07:00:00 5,2 5,2 0,0
18.10.2017 06:00:00 5,0 5,0 0,0
18.10.2017 05:00:00 4,7 4,7 0,0
18.10.2017 04:00:00 4,8 4,8 0,0
18.10.2017 03:00:00 4,9 4,7 0,0
18.10.2017 02:00:00 6,0 5,4 0,0
18.10.2017 01:00:00 6,8 5,8 0,0
18.10.2017 00:00:00 6,8 5,6 0,0
17.10.2017 23:00:00 7,1 5,9 0,0
17.10.2017 22:00:00 7,4 6,5 0,0
17.10.2017 21:00:00 7,9 6,7 0,0
17.10.2017 20:00:00 8,2 7,5 0,0
17.10.2017 19:00:00 8,2 7,6 0,2
17.10.2017 18:00:00 8,8 7,6 0,0
17.10.2017 17:00:00 9,2 7,8 0,0
17.10.2017 16:00:00 9,5 7,7 0,0
17.10.2017 15:00:00 10,0 7,6 0,0
17.10.2017 14:00:00 10,6 7,9 0,0
17.10.2017 13:00:00 11,2 9,1 0,0
17.10.2017 12:00:00 11,9 10,0 0,0
17.10.2017 11:00:00 12,5 10,5 0,0
17.10.2017 10:00:00 12,0 10,6 0,0
17.10.2017 09:00:00 11,7 10,4 0,0
17.10.2017 08:00:00 11,3 10,3 0,0
17.10.2017 07:00:00 11,2 10,3 0,0
17.10.2017 06:00:00 10,7 10,6 0,0
17.10.2017 05:00:00 10,6 10,5 3,2
17.10.2017 04:00:00 10,8 10,3 0,8
17.10.2017 03:00:00 11,4 10,1 0,4
17.10.2017 02:00:00 11,3 9,5 0,2
17.10.2017 01:00:00 11,0 10,2 0,6
17.10.2017 00:00:00 10,9 10,2 0,4
16.10.2017 23:00:00 10,9 9,9 0,0
16.10.2017 22:00:00 10,8 9,7 0,0
16.10.2017 21:00:00 10,3 10,3 0,0
16.10.2017 20:00:00 10,0 10,0 0,2
16.10.2017 19:00:00 9,6 9,6 0,0
16.10.2017 18:00:00 9,3 9,3 0,0
16.10.2017 17:00:00 9,2 9,2 0,8
16.10.2017 16:00:00 8,8 8,8 0,0
16.10.2017 15:00:00 8,3 8,3 0,0
16.10.2017 14:00:00 8,0 8,0 0,4
16.10.2017 13:00:00 7,9 7,9 0,6
16.10.2017 12:00:00 7,8 7,8 0,8
16.10.2017 11:00:00 7,5 7,5 1,4
16.10.2017 10:00:00 7,1 7,1 1,4
16.10.2017 09:00:00 7,0 7,0 0,6
16.10.2017 08:00:00 7,0 7,0 0,6
16.10.2017 07:00:00 6,9 6,8 0,4
16.10.2017 06:00:00 7,1 6,5 0,0
16.10.2017 05:00:00 7,2 6,4 0,0
16.10.2017 04:00:00 7,2 6,3 0,0
16.10.2017 03:00:00 7,4 6,4 0,0
16.10.2017 02:00:00 7,8 6,4 0,0
16.10.2017 01:00:00 8,3 6,2 0,0
16.10.2017 00:00:00 8,2 6,3 0,0
15.10.2017 23:00:00 8,5 6,3 0,0
15.10.2017 22:00:00 8,8 6,3 0,0
15.10.2017 21:00:00 8,8 6,2 0,0
15.10.2017 20:00:00 9,0 6,5 0,0
15.10.2017 19:00:00 9,3 6,4 0,0
15.10.2017 18:00:00 9,8 7,1 0,0
15.10.2017 17:00:00 11,0 7,0 0,0
15.10.2017 16:00:00 11,5 8,0 0,0
15.10.2017 15:00:00 14,3 10,7 0,0
15.10.2017 14:00:00 16,9 11,3 0,0
15.10.2017 13:00:00 16,3 11,7 0,0
15.10.2017 12:00:00 15,3 12,5 0,0
15.10.2017 11:00:00 14,3 13,0 0,0
15.10.2017 10:00:00 13,7 12,1 0,2
15.10.2017 09:00:00 13,5 11,9 0,0
15.10.2017 08:00:00 13,4 12,1 0,0
15.10.2017 07:00:00 13,0 12,1 0,0

tt = Température de l'air
td = dewpoint
rr = Quantités de précipitations

stations d'obs. à proximité